Location: Unspecified
(20.0000°S, 0.0000°E)
Time: 18:00:10
(UTC+00:00)

ISS - Pass Details

Date: 23 May 2019
Orbit: 407 x 418 km, 51.6° (Epoch: 20 June)

Event Time Altitude Azimuth Distance (km) Brightness Sun altitude
Exits shadow 04:52:54 - 346° (NNW) 1,638 -0.7 -21.2°
Reaches altitude 10° 04:53:18 10° 349° (N) 1,489 -0.9 -21.1°
Maximum altitude 04:56:20 32° 54° (NE) 740 -1.9 -20.4°
Drops below altitude 10° 04:59:23 10° 119° (ESE) 1,499 -0.3 -19.7°
Sets 05:01:37 0° 129° (SE) 2,366 0.6 -19.2°
